Home > Weather > Boulder > Past weeks

Flag for USA Past Weather in Boulder, Colorado, USA — Yesterday and Last 2 Weeks

Now
64 °F

Clear.


Feels Like: 64 °F
Forecast: 58 / 83 °F
Wind: 9 mph from Southwest

Location: Broomfield / Jeffco

Current Time: Aug 29, 2016 at 1:31:58 AM

Latest Report: Aug 29, 2016 at 12:55 AM


Visibility: 10 mi

Pressure: 30.29 "Hg (25.04 "Hg at 1623m altitude)

Humidity: 49%

Dew Point: 45 °F

Location of BoulderLocation

Past Weather in Boulder — Graph

°F

Boulder Temperature Yesterday

Maximum temperature yesterday: 84 °F (at 12:45 PM)
Minimum temperature yesterday: 59 °F (at 1:55 AM)
Average temperature yesterday: 68 °F

High & Low Weather Summary for the Past Weeks

 TemperatureHumidityPressure
High90 °F (Aug 14, 3:51 PM)94% (Aug 19, 5:36 AM)30.33 "Hg (Aug 19, 5:36 AM)
Low50 °F (Aug 19, 7:45 PM)12% (Aug 14, 1:47 PM)29.96 "Hg (Aug 22, 3:50 PM)
Average66 °F48%30.16 "Hg
* Reported Aug 14 12:16 AM — Aug 29 12:35 AM, Boulder, Weather by CustomWeather, © 2016

Note: Actual official high and low records may vary slightly from our data, if they occured in-between our weather recording intervals... More about our weather records

Advertising

Boulder Weather History for the Previous 24 Hours

Scroll right to see more
 ConditionsComfort  
Time TempWeatherWind HumidityBarometerVisibility
12:35 AM
Mon, Aug 29
64 °FClear.13 mph49%30.30 "Hg10 mi
12:15 AM64 °FClear.14 mph49%30.31 "Hg10 mi
11:55 PM
Sun, Aug 28
64 °FClear.10 mph49%30.31 "Hg10 mi
11:35 PM64 °FPassing clouds.8 mph49%30.33 "Hg10 mi
11:14 PM64 °FPassing clouds.6 mph49%30.32 "Hg10 mi
9:51 PM72 °FPartly cloudy.6 mph33%30.29 "Hg30 mi
8:45 PM72 °FPartly cloudy.3 mph33%30.26 "Hg30 mi
7:47 PM73 °FBroken clouds.10 mph29%30.21 "Hg30 mi
4:45 PM77 °FPartly sunny.16 mph24%30.19 "Hg30 mi
3:59 PM84 °FPartly sunny.7 mph16%30.18 "Hg30 mi
2:46 PM84 °FBroken clouds.3 mph15%30.17 "Hg30 mi
1:46 PM84 °FBroken clouds.10 mph15%30.19 "Hg30 mi
12:45 PM84 °FScattered clouds.8 mph15%30.19 "Hg30 mi
11:45 AM81 °FScattered clouds.8 mph21%30.21 "Hg30 mi
10:47 AM81 °FScattered clouds.3 mph16%30.21 "Hg30 mi
9:47 AM73 °FScattered clouds.6 mph27%30.22 "Hg30 mi
8:45 AM66 °FScattered clouds.No wind40%30.22 "Hg30 mi
7:45 AM64 °FPartly sunny.No wind43%30.21 "Hg30 mi
6:45 AM61 °FPassing clouds.3 mph52%30.19 "Hg30 mi
5:55 AM63 °FClear.No wind37%30.17 "Hg10 mi
5:35 AM63 °FClear.3 mph37%30.17 "Hg10 mi
5:15 AM63 °FClear.7 mph39%30.17 "Hg10 mi
4:55 AM64 °FClear.5 mph34%30.16 "Hg10 mi
4:35 AM64 °FClear.5 mph34%30.16 "Hg10 mi
4:14 AM64 °FPassing clouds.No wind34%30.16 "Hg10 mi
3:55 AM64 °FPassing clouds.3 mph34%30.16 "Hg10 mi
3:34 AM64 °FPassing clouds.5 mph34%30.16 "Hg10 mi
3:15 AM63 °FOvercast.3 mph39%30.15 "Hg10 mi
2:55 AM63 °FPassing clouds.10 mph39%30.15 "Hg10 mi
2:35 AM63 °FPassing clouds.6 mph39%30.15 "Hg10 mi
2:15 AM63 °FPassing clouds.5 mph37%30.14 "Hg10 mi
1:55 AM59 °FPassing clouds.12 mph51%30.14 "Hg10 mi
1:35 AM61 °FClear.8 mph45%30.14 "Hg10 mi
1:14 AM61 °FPassing clouds.5 mph48%30.14 "Hg10 mi
Weather by CustomWeather, © 2016

See weather overviewHow to use our weather pages